Previsão horária em Alicante

Hoje, 18 Janeiro, Segunda-feira

Tempo Temperatura Precipitação Vento Pressão Humidade
00:00 +12°C° 0 mm 2 m/s 768 mmHg 55%
01:00 +10°C° 0 mm 2 m/s 768 mmHg 59%
02:00 +10°C° 0 mm 2 m/s 768 mmHg 63%
03:00 +9°C° 0 mm 2 m/s 768 mmHg 68%
04:00 +9°C° 0 mm 2 m/s 768 mmHg 70%
05:00 +9°C° 0 mm 2 m/s 768 mmHg 72%
06:00 +8°C° 0 mm 2 m/s 768 mmHg 75%
07:00 +10°C° 0 mm 2 m/s 769 mmHg 71%
08:00 +12°C° 0 mm 1 m/s 769 mmHg 67%
09:00 +14°C° 0 mm 1 m/s 769 mmHg 63%
10:00 +15°C° 0 mm 1 m/s 769 mmHg 60%
11:00 +16°C° 0 mm 2 m/s 769 mmHg 57%
12:00 +17°C° 0 mm 2 m/s 769 mmHg 54%
13:00 +17°C° 0 mm 2 m/s 769 mmHg 56%
14:00 +17°C° 0 mm 2 m/s 768 mmHg 58%
15:00 +17°C° 0 mm 3 m/s 768 mmHg 60%
16:00 +15°C° 0 mm 2 m/s 768 mmHg 71%
17:00 +13°C° 0 mm 2 m/s 768 mmHg 82%
18:00 +11°C° 0 mm 1 m/s 768 mmHg 93%
19:00 +11°C° 0 mm 1 m/s 768 mmHg 93%
20:00 +11°C° 0 mm 1 m/s 769 mmHg 94%
21:00 +10°C° 0 mm 1 m/s 769 mmHg 94%
22:00 +10°C° 0 mm 1 m/s 769 mmHg 93%
23:00 +10°C° 0 mm 1 m/s 769 mmHg 92%

Amanhã, 19 Janeiro, Terça-feira

Tempo Temperatura Precipitação Vento Pressão Humidade
00:00 +9°C° 0 mm 1 m/s 769 mmHg 91%
01:00 +9°C° 0 mm 1 m/s 769 mmHg 90%
02:00 +9°C° 0 mm 1 m/s 768 mmHg 88%
03:00 +9°C° 0 mm 1 m/s 768 mmHg 87%
04:00 +8°C° 0 mm 1 m/s 768 mmHg 86%
05:00 +8°C° 0 mm 1 m/s 768 mmHg 86%
06:00 +8°C° 0 mm 1 m/s 768 mmHg 85%
07:00 +10°C° 0 mm 1 m/s 768 mmHg 81%
08:00 +12°C° 0 mm 1 m/s 768 mmHg 76%
09:00 +13°C° 0 mm 1 m/s 768 mmHg 72%
10:00 +15°C° 0 mm 1 m/s 767 mmHg 65%
11:00 +16°C° 0 mm 2 m/s 767 mmHg 59%
12:00 +17°C° 0 mm 2 m/s 767 mmHg 52%
13:00 +17°C° 0 mm 2 m/s 766 mmHg 52%
14:00 +17°C° 0 mm 2 m/s 765 mmHg 52%
15:00 +17°C° 0 mm 3 m/s 765 mmHg 52%
16:00 +15°C° 0 mm 2 m/s 765 mmHg 63%
17:00 +13°C° 0 mm 2 m/s 765 mmHg 75%
18:00 +10°C° 0 mm 2 m/s 765 mmHg 86%
19:00 +10°C° 0 mm 2 m/s 765 mmHg 87%
20:00 +10°C° 0 mm 1 m/s 764 mmHg 88%
21:00 +10°C° 0 mm 1 m/s 764 mmHg 88%
22:00 +9°C° 0 mm 1 m/s 764 mmHg 88%
23:00 +9°C° 0 mm 1 m/s 764 mmHg 87%

Depois de amanhã, 20 Janeiro, Quarta-feira

Tempo Temperatura Precipitação Vento Pressão Humidade
00:00 +9°C° 0 mm 1 m/s 763 mmHg 87%
01:00 +9°C° 0 mm 1 m/s 763 mmHg 86%
02:00 +8°C° 0 mm 1 m/s 762 mmHg 86%
03:00 +7°C° 0 mm 2 m/s 761 mmHg 85%
04:00 +8°C° 0 mm 1 m/s 761 mmHg 86%
05:00 +8°C° 0 mm 1 m/s 761 mmHg 87%
06:00 +8°C° 0 mm 1 m/s 761 mmHg 87%
07:00 +9°C° 0 mm 1 m/s 760 mmHg 85%
08:00 +11°C° 0 mm 1 m/s 760 mmHg 82%
09:00 +12°C° 0 mm 1 m/s 760 mmHg 79%
10:00 +13°C° 0 mm 1 m/s 760 mmHg 71%
11:00 +14°C° 0 mm 1 m/s 760 mmHg 64%
12:00 +16°C° 0 mm 1 m/s 760 mmHg 56%
13:00 +16°C° 0 mm 1 m/s 759 mmHg 54%
14:00 +16°C° 0 mm 2 m/s 758 mmHg 52%
15:00 +16°C° 0 mm 2 m/s 757 mmHg 50%
16:00 +15°C° 0 mm 2 m/s 757 mmHg 59%
17:00 +13°C° 0 mm 2 m/s 757 mmHg 67%
18:00 +12°C° 0 mm 2 m/s 757 mmHg 76%
19:00 +10°C° 0 mm 2 m/s 757 mmHg 74%
20:00 +10°C° 0 mm 2 m/s 757 mmHg 71%
21:00 +10°C° 0 mm 2 m/s 757 mmHg 68%
22:00 +12°C° 0.1 mm 2 m/s 758 mmHg 69%
23:00 +11°C° 0.1 mm 3 m/s 758 mmHg 70%

21 Janeiro, Quinta-feira

Tempo Temperatura Precipitação Vento Pressão Humidade
00:00 +11°C° 0.1 mm 3 m/s 758 mmHg 71%
01:00 +11°C° 0 mm 4 m/s 758 mmHg 74%
02:00 +10°C° 0 mm 4 m/s 758 mmHg 77%
03:00 +8°C° 0 mm 4 m/s 759 mmHg 80%
04:00 +8°C° 0 mm 4 m/s 759 mmHg 81%
05:00 +8°C° 0 mm 4 m/s 759 mmHg 82%
06:00 +9°C° 0 mm 3 m/s 759 mmHg 83%
07:00 +10°C° 0 mm 4 m/s 760 mmHg 79%
08:00 +11°C° 0 mm 4 m/s 760 mmHg 75%
09:00 +12°C° 0 mm 4 m/s 760 mmHg 71%
10:00 +14°C° 0 mm 5 m/s 760 mmHg 65%
11:00 +16°C° 0 mm 7 m/s 760 mmHg 59%
12:00 +17°C° 0 mm 8 m/s 760 mmHg 53%
13:00 +17°C° 0 mm 8 m/s 760 mmHg 52%
14:00 +18°C° 0 mm 7 m/s 759 mmHg 51%
15:00 +18°C° 0 mm 7 m/s 759 mmHg 49%
16:00 +17°C° 0 mm 6 m/s 759 mmHg 53%
17:00 +15°C° 0 mm 5 m/s 759 mmHg 57%
18:00 +14°C° 0 mm 4 m/s 758 mmHg 61%
19:00 +14°C° 0 mm 5 m/s 758 mmHg 62%
20:00 +14°C° 0 mm 5 m/s 758 mmHg 62%
21:00 +14°C° 0 mm 6 m/s 758 mmHg 63%
22:00 +14°C° 0 mm 6 m/s 758 mmHg 66%
23:00 +14°C° 0 mm 5 m/s 758 mmHg 70%

22 Janeiro, Sexta-feira

Tempo Temperatura Precipitação Vento Pressão Humidade
00:00 +13°C° 0 mm 4 m/s 758 mmHg 73%
01:00 +13°C° 0 mm 4 m/s 758 mmHg 76%
02:00 +12°C° 0 mm 4 m/s 758 mmHg 78%
03:00 +11°C° 0 mm 3 m/s 758 mmHg 80%
04:00 +11°C° 0 mm 3 m/s 759 mmHg 79%
05:00 +11°C° 0 mm 3 m/s 759 mmHg 78%
06:00 +10°C° 0 mm 2 m/s 759 mmHg 77%
07:00 +11°C° 0 mm 3 m/s 759 mmHg 73%
08:00 +12°C° 0 mm 3 m/s 759 mmHg 68%
09:00 +13°C° 0 mm 3 m/s 759 mmHg 63%
10:00 +15°C° 0 mm 5 m/s 759 mmHg 57%
11:00 +17°C° 0 mm 7 m/s 758 mmHg 52%
12:00 +20°C° 0 mm 8 m/s 758 mmHg 46%
13:00 +17°C° 0.3 mm 9 m/s 757 mmHg 51%
14:00 +14°C° 0.3 mm 10 m/s 757 mmHg 55%
15:00 +12°C° 0.3 mm 11 m/s 757 mmHg 59%
16:00 +12°C° 0 mm 10 m/s 758 mmHg 60%
17:00 +12°C° 0 mm 9 m/s 758 mmHg 60%
18:00 +11°C° 0 mm 8 m/s 759 mmHg 60%
19:00 +11°C° 0 mm 7 m/s 760 mmHg 61%
20:00 +10°C° 0 mm 7 m/s 761 mmHg 63%
21:00 +10°C° 0 mm 7 m/s 761 mmHg 65%
22:00 +9°C° 0 mm 6 m/s 762 mmHg 67%
23:00 +9°C° 0 mm 6 m/s 762 mmHg 69%

23 Janeiro, Sábado

Tempo Temperatura Precipitação Vento Pressão Humidade
00:00 +9°C° 0 mm 6 m/s 763 mmHg 71%
01:00 +8°C° 0 mm 6 m/s 763 mmHg 72%
02:00 +8°C° 0 mm 6 m/s 763 mmHg 72%
03:00 +7°C° 0 mm 5 m/s 763 mmHg 73%
04:00 +7°C° 0 mm 6 m/s 763 mmHg 73%
05:00 +7°C° 0 mm 6 m/s 764 mmHg 72%
06:00 +7°C° 0 mm 6 m/s 764 mmHg 72%
07:00 +8°C° 0 mm 6 m/s 764 mmHg 68%
08:00 +9°C° 0 mm 5 m/s 764 mmHg 65%
09:00 +9°C° 0 mm 5 m/s 764 mmHg 62%
10:00 +12°C° 0 mm 5 m/s 764 mmHg 57%
11:00 +13°C° 0 mm 5 m/s 764 mmHg 51%
12:00 +14°C° 0 mm 5 m/s 763 mmHg 46%
13:00 +14°C° 0 mm 5 m/s 763 mmHg 46%
14:00 +15°C° 0 mm 6 m/s 762 mmHg 46%
15:00 +15°C° 0 mm 6 m/s 762 mmHg 46%
16:00 +14°C° 0 mm 5 m/s 762 mmHg 51%
17:00 +13°C° 0 mm 5 m/s 762 mmHg 57%
18:00 +11°C° 0 mm 4 m/s 762 mmHg 62%
19:00 +11°C° 0 mm 4 m/s 762 mmHg 64%
20:00 +11°C° 0 mm 3 m/s 763 mmHg 65%
21:00 +11°C° 0 mm 3 m/s 763 mmHg 66%
22:00 +11°C° 0 mm 3 m/s 763 mmHg 67%
23:00 +11°C° 0 mm 4 m/s 763 mmHg 67%
Mostrar mais

Necessitamos do seu Consentimento

A Meteoprog e os seus Fornecedores de Serviços podem armazenar e aceder a dados pessoais como cookies, identificadores do dispositivo ou outras tecnologias semelhantes existentes no seu dispositivo e processar estes dados para personalizar conteúdos e anúncios, assim como funcionalidades nas redes sociais e análise de tráfego.

  • Armazenar e/ou aceder a informações no seu dispositivo

    Os cookies, identificadores do dispositivo ou outras informações podem ser armazenados ou acedidos no seu dispositivo, para os fins acima indicados.

  • Anúncios e conteúdos personalizados, medição de anúncios e conteúdos, dados sobre o público-alvo e desenvolvimento de produtos

    Os anúncios e os conteúdos podem ser personalizados com base num perfil. Podem ser adicionados dados adicionais para uma maior personalização dos anúncios e dos conteúdos. A eficácia dos anúncios e dos conteúdos pode ser medida. Podem ser obtidas informações sobre o público que visualizou os anúncios e os conteúdos. Estes dados podem ser usados para desenvolver ou melhorar sistemas, softwares ou a experiência do utilizador.

Ao clicar em "Eu concordo”, permitirá o uso de cookies, identificadores do dispositivo e web beacons mencionados ou outras tecnologias semelhantes. As configurações do navegador do seu dispositivo podem ser alteradas.

Para certos fins, podem ser invocados interesses legítimos ao invés de consentimento. Pode ler mais informação sobre este assunto na nossa Política de Privacidade e Cookies.